#timestamp,LO_Frequency,Hit,StdDev 
1663228815.3,286047000.3,N
1663228835.2,286046998.9,N
1663228855.9,286046998.1,N
1663228875.7,286046999.8,N
1663228895.6,286047001.0,N
1663228915.4,286047000.7,N
1663228935.6,286046998.8,N
1663228955.4,286046998.5,N
1663228975.2,286046999.7,N
1663228995.1,286047002.5,N
1663228996.0,286047002.5,N
1663229015.8,286047001.6,N
1663229035.7,286047004.3,N
1663229055.5,286047002.0,N
1663229075.3,286047001.9,N
1663229095.2,286046999.9,N
1663229115.0,286047002.8,N
1663229115.9,286047002.8,N
1663229135.7,286047002.4,N
1663229155.6,286046999.8,N
1663229175.4,286047001.6,N
1663229195.3,286047001.8,N
1663229215.1,286047001.5,N
1663229216.0,286047001.5,N
1663229235.8,286047001.7,N
1663229255.7,286047001.4,N
1663229275.5,286047002.6,N
1663229295.3,286047001.3,N
1663229315.2,286047004.2,N
1663229335.0,286047001.6,N
1663229335.9,286047001.6,N
1663229355.8,286047001.8,N
1663229375.6,286047001.6,N
1663229395.4,286046999.7,N
1663229415.3,286046999.0,N
1663229435.1,286046996.8,N
1663229455.9,286046996.9,N
1663229475.7,286046997.0,N
1663229495.5,286046997.2,N
1663229515.4,286046999.4,N
1663229535.2,286047002.8,N
1663229555.0,286047001.6,N
1663229555.9,286047001.6,N
1663229575.8,286047002.8,N
1663229595.6,286047002.5,N
1663229615.5,286046999.7,N
1663229635.3,286047001.8,N
1663229655.1,286047003.6,N
1663229675.9,286047003.1,N
1663229695.7,286047003.3,N
1663229715.5,286047003.5,N
1663229735.4,286047003.1,N
1663229755.2,286047003.2,N
1663229775.1,286047003.7,N
1663229776.0,286047003.7,N
1663229795.8,286047003.8,N
1663229815.6,286047003.8,N
1663229835.5,286047004.3,N
1663229855.3,286047003.7,N
1663229875.2,286047004.1,N
1663229895.9,286047001.4,N
1663229915.7,286047001.6,N
1663229935.6,286047001.0,N
1663229955.4,286047002.4,N
1663229975.2,286046999.7,N
1663229995.1,286046999.9,N
1663229996.0,286046999.9,N
1663230015.8,286047000.1,N
1663230035.7,286046999.8,N
1663230055.5,286047000.2,N
1663230075.3,286047000.2,N
1663230095.2,286047002.8,N
1663230115.0,286047001.9,N
1663230115.9,286047001.9,N
1663230135.7,286047002.1,N
1663230155.6,286047004.2,N
1663230175.4,286047004.4,N
1663230195.3,286047004.4,N
1663230215.1,286047001.6,N
1663230235.8,286047001.8,N
1663230255.7,286047002.6,N
1663230275.5,286047003.8,N
1663230295.4,286047003.7,N
1663230315.2,286047002.6,N
1663230335.0,286047000.3,N
1663230335.9,286047000.3,N
1663230355.8,286046998.6,N
1663230375.6,286047000.4,N
1663230395.4,286047001.0,N
1663230415.3,286046998.7,N
1663230435.1,286046999.0,N
1663230455.9,286046998.4,N
1663230475.7,286046998.4,N
1663230495.5,286047001.0,N
1663230515.4,286047000.1,N
1663230535.2,286047002.6,N
1663230555.0,286047002.2,N
1663230555.9,286047002.2,N
1663230575.8,286046999.8,N
1663230595.6,286047002.0,N
1663230615.5,286047002.6,N
1663230635.3,286047002.0,N
1663230655.1,286047001.8,N
1663230675.9,286047002.0,N
1663230695.7,286047001.5,N
1663230715.5,286047003.9,N
1663230735.4,286047003.3,N
1663230755.2,286047005.9,Y
1663230775.1,286047004.4,P
1663230776.0,286047004.4,N
1663230795.8,286047003.6,N
1663230815.6,286047003.4,N
1663230835.5,286047004.2,Y
1663230855.3,286046999.9,P
1663230875.2,286047002.8,N
1663230895.9,286047000.3,N
1663230915.7,286047000.1,N
1663230935.6,286047000.4,N
1663230955.4,286047000.1,N
1663230975.2,286047000.2,N
1663230995.1,286047000.1,N
1663230996.0,286047000.1,N
1663231015.8,286047000.6,N
1663231035.7,286047000.8,N
1663231055.5,286047001.1,N
1663231075.3,286046999.5,N
1663231095.2,286046996.9,N
1663231115.0,286046996.8,N
1663231115.9,286046996.8,N
1663231135.7,286046997.4,N
1663231155.6,286046997.7,N
1663231175.4,286046997.1,N
1663231195.3,286046995.4,N
1663231215.1,286046995.1,N
1663231216.0,286046995.1,N
1663231235.8,286046993.7,N
1663231255.7,286046993.3,N
1663231275.5,286046994.2,N
1663231295.4,286046992.0,N
1663231315.2,286046991.9,N
1663231335.0,286046994.8,N
1663231335.9,286046994.8,N
1663231355.8,286046992.1,N
1663231375.6,286046992.1,N
1663231395.4,286046992.1,N
1663231415.3,286046994.5,N
1663231435.1,286046992.1,N
1663231455.9,286046991.8,N
1663231475.7,286046991.9,N
1663231495.5,286046994.8,N
1663231515.4,286046992.6,N
1663231535.2,286046993.2,N
1663231555.0,286046992.1,N
1663231555.9,286046992.1,N
1663231575.8,286046992.1,Y
1663231595.6,286046996.8,P
1663231615.5,286046996.7,N
1663231635.3,286046997.7,N
1663231655.1,286046997.7,N
1663231675.9,286046995.0,Y
1663231695.7,286047000.7,P
1663231715.6,286047000.5,N
1663231735.4,286047000.3,N
1663231755.2,286046999.8,N
1663231775.1,286047000.7,N
1663231776.0,286047000.7,N
1663231795.8,286046998.1,N
1663231815.6,286046998.8,N
1663231835.5,286046998.9,N
1663231855.3,286046998.4,N
1663231875.2,286046999.2,N
1663231895.9,286046997.0,N
1663231915.7,286046996.9,N
1663231935.6,286046997.1,N
1663231955.4,286046996.8,N
1663231975.3,286046995.3,Y
1663231995.1,286046998.9,P
1663231996.0,286046998.9,P
1663232015.8,286046996.7,P
1663232035.7,286046997.2,Y
1663232055.5,286047001.2,P
1663232075.4,286046998.8,N
1663232095.2,286046998.2,N
1663232115.0,286046998.9,N
1663232115.9,286046998.9,N
1663232135.8,286046996.6,Y
1663232155.6,286046998.4,P
1663232175.5,286046998.3,P
1663232195.3,286046998.9,P
1663232215.1,286046998.7,Y
1663232235.9,286047000.7,P
1663232255.7,286047000.0,N
1663232275.5,286047002.7,P
1663232295.4,286047001.6,N
1663232315.2,286047002.2,N
1663232335.1,286047002.3,N
1663232336.0,286047002.3,N
1663232355.8,286047002.8,N
1663232375.6,286047002.1,N
1663232395.5,286047002.7,N
